[[{"header":{"parameterUnit":"m.s-1","parameterCategory":2,"la1":30.2991,"la2":30.254,"lo1":-89.0895,"lo2":-89.0444,"dy":0.0017,"dx":0.0017,"nx":28,"ny":28,"refTime":"2025-07-12T21:00:00:Z","depth":"0","parameterNumber":2,"parameterNumberName":"U-component_of_CURRENTS"},"data":[0,0,0,0,0,0,0,0,0,0,0,0,0,0,0,0,0,0,0,0,0,0,0,0,0,0,0,0,0,0,0,0,0,0,0,0,0,0,0,0,0,0,0,0,0,0,0,0,0,0,0,0,0,0,0,0,0,0,-0.2003,-0.2003,0,-0.2029,-0.203,-0.203,-0.2107,-0.2109,-0.211,-0.2112,-0.2121,-0.212,-0.2119,0,0,0,0,0,0,0,0,0,0,0,0,0,-0.2031,-0.203,-0.2003,-0.2003,-0.2003,-0.2029,-0.203,-0.203,-0.2107,-0.2109,-0.2111,-0.2113,-0.2122,-0.212,-0.2119,0,0,0,0,0,0,0,0,0,0,0,0,0,-0.2034,-0.2029,-0.2003,-0.2045,-0.2049,-0.2029,-0.203,-0.203,-0.2106,-0.2109,-0.2111,-0.2114,-0.2122,-0.2121,-0.2119,-0.2056,0,0,-0.2113,-0.2112,0,0,0,0,0,0,0,0,-0.2034,-0.2033,-0.2038,-0.2042,-0.2046,-0.2067,-0.2043,-0.2038,-0.2106,-0.2084,-0.2112,-0.2115,-0.21,-0.21,-0.21,-0.2057,-0.2057,-0.2112,-0.2111,-0.211,-0.211,0,0,0,0,0,0,0,-0.2033,-0.2032,-0.2013,-0.2038,-0.2043,-0.2066,-0.2069,-0.2043,-0.2077,-0.2086,-0.2092,-0.2094,-0.2102,-0.2101,-0.21,-0.2057,-0.2113,-0.2111,-0.211,-0.2109,-0.2014,-0.2013,0,0,0,0,0,0,-0.2026,-0.2031,-0.2012,-0.2014,-0.2046,-0.2064,-0.2067,-0.2058,-0.2078,-0.2084,-0.2092,-0.2098,-0.2104,-0.2103,-0.2101,-0.2068,-0.211,-0.2109,-0.2107,-0.2015,-0.2014,-0.2012,0,0,0,0,0,0,-0.2026,-0.2023,-0.2011,-0.2024,-0.2025,-0.206,-0.205,-0.2057,-0.2061,-0.2083,-0.2089,-0.2089,-0.2105,-0.2104,-0.2088,-0.2067,-0.2108,-0.2106,-0.2017,-0.2015,-0.2013,-0.1976,0,0,0,0,0,0,-0.2027,-0.2023,-0.2012,-0.2023,-0.2024,-0.1994,-0.2047,-0.2056,-0.2058,-0.2066,-0.2081,-0.2085,-0.2107,-0.2091,-0.2086,-0.2066,-0.2104,-0.2019,-0.2016,-0.2014,-0.1979,-0.1973,-0.1967,0,0,0,0,0,-0.2027,-0.2006,-0.2011,-0.2009,-0.2008,-0.1992,-0.1994,-0.2029,-0.2055,-0.2044,-0.2067,-0.2085,-0.2072,-0.2088,-0.2083,-0.2061,-0.202,-0.2017,-0.2014,-0.1981,-0.1974,-0.1968,0,0,0,0,0,0,-0.2018,-0.2012,-0.2019,-0.1998,-0.1991,-0.2006,-0.1998,-0.2015,-0.2022,-0.2033,-0.2062,-0.2065,-0.2045,-0.2048,-0.2065,-0.2026,-0.2049,-0.2045,-0.2026,-0.2019,-0.2014,-0.2045,-0.2103,0,0,0,0,0,-0.2006,-0.1985,-0.1984,-0.1965,-0.1957,-0.197,-0.1969,-0.1987,-0.1995,-0.2002,-0.2013,-0.2023,-0.2023,-0.202,-0.2016,-0.1981,-0.1999,-0.1965,-0.1959,-0.1955,-0.1975,-0.1983,-0.1981,-0.2002,-0.2002,-0.2002,0,0,-0.1997,-0.199,-0.198,-0.196,-0.1958,-0.1948,-0.1976,-0.1963,-0.1968,-0.1996,-0.1996,-0.1996,-0.2008,-0.1989,-0.1979,-0.1993,-0.195,-0.1951,-0.1947,-0.1971,-0.198,-0.1978,-0.1977,-0.2,-0.2001,-0.2001,0,0,-0.1968,-0.1958,-0.1932,-0.1923,-0.1911,-0.192,-0.1912,-0.1912,-0.1925,-0.191,-0.1943,-0.1941,-0.1921,-0.1944,-0.195,-0.1903,-0.1919,-0.1883,-0.1881,-0.1888,-0.1887,-0.1887,-0.188,-0.1879,-0.1882,-0.1882,-0.1882,0,-0.1962,-0.1932,-0.1922,-0.19,-0.1902,-0.1906,-0.1893,-0.1894,-0.1895,-0.1905,-0.1907,-0.191,-0.1911,-0.192,-0.1911,-0.1894,-0.1894,-0.1908,-0.1883,-0.1883,-0.1884,-0.1877,-0.1877,-0.188,-0.188,-0.188,-0.1881,0,-0.1917,-0.19,-0.1881,-0.1863,-0.186,-0.1841,-0.1849,-0.1844,-0.1854,-0.1867,-0.1865,-0.1867,-0.1883,-0.1864,-0.1875,-0.1871,-0.1867,-0.1874,-0.1906,-0.188,-0.1873,-0.1874,-0.1877,-0.1878,-0.1878,-0.1879,0,0,-0.1882,-0.1858,-0.1851,-0.1851,-0.1843,-0.1838,-0.1837,-0.1845,-0.1863,-0.1847,-0.187,-0.1857,-0.1865,-0.1873,-0.1873,-0.1874,-0.1859,-0.1871,-0.1872,-0.1875,-0.1858,-0.1857,-0.1857,-0.1857,-0.1858,-0.1858,-0.1843,0,-0.1852,-0.1817,-0.1818,-0.1806,-0.1794,-0.1813,-0.1823,-0.1835,-0.1846,-0.1861,-0.1867,-0.1877,-0.1865,-0.1869,-0.1867,-0.1868,-0.1863,-0.1862,-0.1875,-0.1876,-0.1888,-0.186,-0.1862,-0.1851,-0.1844,-0.1845,-0.1845,0,-0.1803,-0.1794,-0.1771,-0.1795,-0.1794,-0.1795,-0.1828,-0.1837,-0.1864,-0.1875,-0.1887,-0.1896,-0.19,-0.189,-0.1886,-0.1881,-0.1871,-0.1865,-0.1865,-0.1888,-0.1877,-0.188,-0.1853,-0.1737,-0.1846,-0.1846,-0.1846,0,-0.1775,-0.1766,-0.1754,-0.1755,-0.1775,-0.1785,-0.1805,-0.1836,-0.1856,-0.1884,-0.19,-0.191,-0.1915,-0.1907,-0.1888,-0.1887,-0.1879,-0.188,-0.1868,-0.1867,-0.1889,-0.189,-0.1769,-0.1882,-0.1882,-0.1882,-0.1882,0,-0.1737,-0.173,-0.1741,-0.1731,-0.1744,-0.1771,-0.1794,-0.1816,-0.1857,-0.1884,-0.1904,-0.1923,-0.1919,-0.1914,-0.1895,-0.1879,-0.1883,-0.1874,-0.1869,-0.1871,-0.187,-0.1788,-0.1674,-0.1881,-0.1881,-0.1882,-0.1882,0,-0.1691,-0.1695,-0.1686,-0.1708,-0.172,-0.1726,-0.1779,-0.1801,-0.1844,-0.1878,-0.1888,-0.1927,-0.1918,-0.1904,-0.1891,-0.1891,-0.1819,-0.1868,-0.1862,-0.1858,-0.1754,-0.1638,-0.161,-0.1564,-0.1864,-0.1864,-0.1864,0,-0.1662,-0.1645,-0.1655,-0.1655,-0.166,-0.1686,-0.171,-0.1775,-0.1806,-0.1879,-0.1894,-0.1908,-0.1907,-0.189,-0.1906,-0.1882,-0.1781,-0.1862,-0.1873,-0.1748,-0.1615,-0.1633,-0.1597,-0.187,-0.187,-0.187,-0.187,0,-0.1607,-0.1602,-0.1588,-0.1584,-0.16,-0.1638,-0.168,-0.171,-0.1792,-0.1825,-0.1866,-0.1873,-0.1903,-0.1915,-0.1905,-0.1873,-0.1774,-0.1863,-0.1739,-0.1613,-0.162,-0.1574,-0.1862,-0.1871,-0.1871,-0.1871,-0.1871,-0.187,-0.1558,-0.1528,-0.1503,-0.1493,-0.1526,-0.1569,-0.1568,-0.1638,-0.1679,-0.1725,-0.1807,-0.1823,-0.1908,-0.1915,-0.1868,-0.1792,-0.177,-0.1729,-0.1598,-0.1634,-0.1584,-0.1866,-0.1868,-0.1868,-0.1868,-0.1868,-0.1868,0,-0.149,-0.1446,-0.1423,-0.1411,-0.1421,-0.147,-0.1525,-0.1507,-0.1522,-0.1645,-0.1679,-0.1812,-0.1807,-0.1815,-0.1779,-0.1587,-0.1595,-0.1427,-0.1422,-0.1398,-0.1656,-0.1649,-0.1597,-0.1597,-0.1597,-0.1597,-0.1597,-0.1597,-0.1447,-0.1379,-0.1348,-0.1301,-0.1307,-0.1289,-0.1301,-0.1278,-0.1335,-0.1417,-0.1543,-0.1651,-0.1551,-0.148,-0.1295,-0.1256,-0.111,-0.1091,-0.1002,-0.1115,-0.1134,-0.1152,-0.1123,-0.0961,-0.096,-0.0866,-0.0863,-0.0861]},{"header":{"parameterUnit":"m.s-1","parameterCategory":2,"la1":30.2991,"la2":30.254,"lo1":-89.0895,"lo2":-89.0444,"dy":0.0017,"dx":0.0017,"nx":28,"ny":28,"refTime":"2025-07-12T21:00:00:Z","depth":"0","parameterNumber":3,"parameterNumberName":"V-component_of_CURRENTS"},"data":[0,0,0,0,0,0,0,0,0,0,0,0,0,0,0,0,0,0,0,0,0,0,0,0,0,0,0,0,0,0,0,0,0,0,0,0,0,0,0,0,0,0,0,0,0,0,0,0,0,0,0,0,0,0,0,0,0,0,-0.1045,-0.1044,0,-0.0964,-0.0963,-0.0961,-0.0925,-0.0925,-0.0926,-0.0926,-0.0715,-0.071,-0.0704,0,0,0,0,0,0,0,0,0,0,0,0,0,-0.1176,-0.1173,-0.1045,-0.1044,-0.1043,-0.0964,-0.0963,-0.0961,-0.0925,-0.0925,-0.0926,-0.0926,-0.0717,-0.071,-0.0703,0,0,0,0,0,0,0,0,0,0,0,0,0,-0.1107,-0.1173,-0.1045,-0.1017,-0.1014,-0.0964,-0.0962,-0.0961,-0.0925,-0.0925,-0.0926,-0.0926,-0.072,-0.0711,-0.0702,-0.0639,0,0,-0.0676,-0.0672,0,0,0,0,0,0,0,0,-0.1111,-0.1102,-0.1022,-0.1019,-0.1015,-0.0957,-0.0932,-0.0848,-0.0925,-0.0956,-0.0926,-0.0926,-0.0785,-0.0771,-0.0754,-0.0629,-0.062,-0.0675,-0.0669,-0.0666,-0.0663,0,0,0,0,0,0,0,-0.1116,-0.1105,-0.101,-0.1021,-0.1017,-0.1012,-0.1002,-0.0916,-0.0865,-0.0953,-0.0951,-0.0946,-0.0782,-0.0762,-0.0748,-0.0617,-0.0675,-0.0667,-0.0662,-0.0658,-0.0407,-0.0406,0,0,0,0,0,0,-0.1129,-0.111,-0.1013,-0.1008,-0.1068,-0.1009,-0.0998,-0.0973,-0.0869,-0.0855,-0.0945,-0.0944,-0.0777,-0.0758,-0.074,-0.0672,-0.0666,-0.0657,-0.0652,-0.0408,-0.0407,-0.0405,0,0,0,0,0,0,-0.1132,-0.112,-0.1016,-0.106,-0.1047,-0.1006,-0.0979,-0.0972,-0.0948,-0.0864,-0.0848,-0.093,-0.0777,-0.0753,-0.0659,-0.0663,-0.0653,-0.0645,-0.041,-0.0408,-0.0406,-0.0527,0,0,0,0,0,0,-0.1135,-0.1121,-0.1102,-0.106,-0.1045,-0.0988,-0.0978,-0.097,-0.0946,-0.0943,-0.0845,-0.0827,-0.0775,-0.0672,-0.065,-0.0651,-0.0639,-0.0412,-0.0409,-0.0407,-0.0525,-0.053,-0.0533,0,0,0,0,0,-0.114,-0.1114,-0.1101,-0.1089,-0.1021,-0.0987,-0.0978,-0.0951,-0.0945,-0.0932,-0.0864,-0.083,-0.064,-0.0664,-0.0638,-0.0637,-0.0413,-0.041,-0.0407,-0.0523,-0.0529,-0.0533,0,0,0,0,0,0,-0.1153,-0.1106,-0.1092,-0.1049,-0.1023,-0.0982,-0.0967,-0.0949,-0.0887,-0.088,-0.0804,-0.078,-0.0704,-0.0638,-0.0666,-0.0552,-0.0523,-0.0514,-0.062,-0.0624,-0.0628,-0.0659,-0.0631,0,0,0,0,0,-0.1149,-0.1117,-0.108,-0.1045,-0.1036,-0.1001,-0.0983,-0.0965,-0.0912,-0.0888,-0.0824,-0.0743,-0.0669,-0.0623,-0.0546,-0.0474,-0.0445,-0.0454,-0.0458,-0.0463,-0.0466,-0.0418,-0.042,-0.0395,-0.0395,-0.0395,0,0,-0.1143,-0.1114,-0.1094,-0.1047,-0.1025,-0.101,-0.099,-0.0965,-0.0948,-0.0868,-0.0816,-0.0752,-0.0651,-0.0585,-0.0544,-0.0532,-0.0459,-0.0459,-0.0464,-0.0464,-0.0415,-0.0418,-0.042,-0.0393,-0.0393,-0.0394,0,0,-0.1134,-0.1094,-0.1077,-0.1058,-0.103,-0.101,-0.1005,-0.0967,-0.0945,-0.0883,-0.0832,-0.0774,-0.0647,-0.0601,-0.0553,-0.0522,-0.0484,-0.049,-0.0537,-0.0491,-0.0494,-0.0496,-0.0504,-0.0506,-0.0493,-0.0493,-0.0493,0,-0.1131,-0.1101,-0.1068,-0.1058,-0.1045,-0.1014,-0.1007,-0.0978,-0.0913,-0.0894,-0.0874,-0.0732,-0.0659,-0.0592,-0.0592,-0.0538,-0.0518,-0.0539,-0.0503,-0.0504,-0.0504,-0.0511,-0.0511,-0.0499,-0.0498,-0.0497,-0.0497,0,-0.112,-0.1098,-0.109,-0.1066,-0.1047,-0.1033,-0.1003,-0.098,-0.0952,-0.0925,-0.0859,-0.0774,-0.0695,-0.0668,-0.0618,-0.0583,-0.0574,-0.0523,-0.0509,-0.0515,-0.0521,-0.0519,-0.0506,-0.0504,-0.0503,-0.0501,0,0,-0.1101,-0.1087,-0.1084,-0.1085,-0.1052,-0.104,-0.1015,-0.0987,-0.0977,-0.0923,-0.0902,-0.0804,-0.0781,-0.0725,-0.0669,-0.0635,-0.0641,-0.0589,-0.0584,-0.0632,-0.058,-0.0716,-0.0727,-0.0586,-0.0585,-0.0584,-0.0601,0,-0.1104,-0.1106,-0.1087,-0.1082,-0.1082,-0.1053,-0.1035,-0.1006,-0.0972,-0.0945,-0.0885,-0.0833,-0.0795,-0.0765,-0.073,-0.0642,-0.0634,-0.0644,-0.0534,-0.0532,-0.068,-0.0728,-0.0755,-0.0783,-0.0599,-0.0598,-0.0598,0,-0.1096,-0.1102,-0.111,-0.1105,-0.1102,-0.1093,-0.1069,-0.1048,-0.1006,-0.0982,-0.0942,-0.089,-0.0839,-0.08,-0.0706,-0.0712,-0.0665,-0.0613,-0.0611,-0.0692,-0.0665,-0.0732,-0.0787,-0.0554,-0.0595,-0.0596,-0.0596,0,-0.1109,-0.1111,-0.1123,-0.112,-0.1111,-0.1107,-0.1096,-0.1061,-0.1053,-0.1008,-0.1001,-0.0929,-0.089,-0.0811,-0.0733,-0.0705,-0.0647,-0.0583,-0.0675,-0.0685,-0.0664,-0.0675,-0.0508,-0.0536,-0.0536,-0.0536,-0.0536,0,-0.1108,-0.1113,-0.1136,-0.1139,-0.1156,-0.1135,-0.1137,-0.1114,-0.1094,-0.1098,-0.1028,-0.102,-0.0885,-0.084,-0.0761,-0.075,-0.0671,-0.0713,-0.0701,-0.0712,-0.0727,-0.0486,-0.0283,-0.0536,-0.0536,-0.0536,-0.0536,0,-0.1097,-0.1116,-0.1134,-0.1151,-0.116,-0.1167,-0.1177,-0.1185,-0.1156,-0.1158,-0.1149,-0.1082,-0.1036,-0.0949,-0.0827,-0.0808,-0.0652,-0.0772,-0.0839,-0.0838,-0.0738,-0.0542,-0.0387,-0.0294,-0.088,-0.0883,-0.0886,0,-0.1085,-0.1097,-0.1146,-0.1176,-0.1184,-0.1203,-0.1226,-0.1215,-0.123,-0.1206,-0.1218,-0.1179,-0.1182,-0.1111,-0.1067,-0.1023,-0.0749,-0.1002,-0.0959,-0.0771,-0.0538,-0.0423,-0.0344,-0.0974,-0.0978,-0.0981,-0.0983,0,-0.1058,-0.1085,-0.1107,-0.1184,-0.1226,-0.1268,-0.1298,-0.1327,-0.1321,-0.134,-0.1359,-0.1361,-0.1341,-0.1339,-0.1308,-0.1232,-0.0822,-0.1066,-0.08,-0.0565,-0.0487,-0.0382,-0.0949,-0.1008,-0.1006,-0.1004,-0.1002,-0.1001,-0.1039,-0.1061,-0.1119,-0.1183,-0.1248,-0.1325,-0.1359,-0.1422,-0.1474,-0.1538,-0.1511,-0.1576,-0.1492,-0.1486,-0.14,-0.1152,-0.1035,-0.099,-0.0763,-0.0667,-0.0581,-0.1274,-0.1367,-0.1366,-0.1366,-0.1365,-0.1365,0,-0.1031,-0.1065,-0.1121,-0.1211,-0.1288,-0.1319,-0.1404,-0.1458,-0.1553,-0.1685,-0.1747,-0.1717,-0.163,-0.1444,-0.1153,-0.0873,-0.074,-0.061,-0.0349,-0.028,-0.0838,-0.0848,-0.0917,-0.0918,-0.0918,-0.0918,-0.0918,-0.0918,-0.1035,-0.1086,-0.1122,-0.1235,-0.1294,-0.1394,-0.1445,-0.1549,-0.1663,-0.1812,-0.1872,-0.1839,-0.12,-0.0755,-0.0316,-0.0251,0.0113,0.0106,0.0314,0.0062,0.0048,0.0034,0.0069,0.0193,0.0194,0.0768,0.0775,0.0781]}],[{"header":{"parameterUnit":"m.s-1","parameterCategory":2,"la1":30.2991,"la2":30.254,"lo1":-89.0895,"lo2":-89.0444,"dy":0.0017,"dx":0.0017,"nx":28,"ny":28,"refTime":"2025-07-12T21:00:00:Z","depth":"2","parameterNumber":2,"parameterNumberName":"U-component_of_CURRENTS"},"data":[0,0,0,0,0,0,0,0,0,0,0,0,0,0,0,0,0,0,0,0,0,0,0,0,0,0,0,0,0,0,0,0,0,0,0,0,0,0,0,0,0,0,0,0,0,0,0,0,0,0,0,0,0,0,0,0,0,0,-0.2473,-0.2474,0,-0.254,-0.2541,-0.2541,-0.2599,-0.26,-0.2601,-0.2602,-0.252,-0.2517,-0.2514,0,0,0,0,0,0,0,0,0,0,0,0,0,-0.2375,-0.2376,-0.2473,-0.2474,-0.2475,-0.254,-0.2541,-0.2541,-0.2599,-0.26,-0.2601,-0.2602,-0.2521,-0.2517,-0.2513,0,0,0,0,0,0,0,0,0,0,0,0,0,-0.2423,-0.2376,-0.2473,-0.2515,-0.252,-0.254,-0.2541,-0.2541,-0.2598,-0.26,-0.2602,-0.2603,-0.2522,-0.2518,-0.2513,-0.2453,0,0,-0.2498,-0.2496,0,0,0,0,0,0,0,0,-0.242,-0.2426,-0.2508,-0.2512,-0.2518,-0.2566,-0.2476,-0.2506,-0.2598,-0.2564,-0.2602,-0.2604,-0.2523,-0.2518,-0.2524,-0.2449,-0.2446,-0.2498,-0.2495,-0.2493,-0.2492,0,0,0,0,0,0,0,-0.2417,-0.2424,-0.2495,-0.2509,-0.2515,-0.2524,-0.2532,-0.2482,-0.2528,-0.2567,-0.2573,-0.2586,-0.2524,-0.2528,-0.2522,-0.2444,-0.2498,-0.2494,-0.2491,-0.2489,-0.2345,-0.2345,0,0,0,0,0,0,-0.2416,-0.242,-0.2493,-0.2498,-0.2476,-0.2525,-0.2534,-0.2546,-0.2532,-0.2534,-0.2585,-0.2589,-0.2536,-0.2527,-0.2519,-0.2471,-0.2493,-0.2489,-0.2486,-0.2346,-0.2345,-0.2344,0,0,0,0,0,0,-0.2414,-0.2422,-0.2491,-0.2464,-0.2474,-0.2526,-0.2538,-0.2546,-0.2565,-0.2548,-0.2546,-0.2597,-0.2537,-0.2526,-0.2481,-0.2467,-0.2487,-0.2482,-0.2348,-0.2346,-0.2345,-0.2359,0,0,0,0,0,0,-0.2411,-0.2421,-0.2424,-0.2464,-0.2476,-0.2507,-0.2537,-0.2547,-0.2572,-0.2578,-0.2556,-0.2551,-0.2537,-0.2489,-0.2477,-0.2461,-0.2479,-0.2349,-0.2347,-0.2345,-0.236,-0.2358,-0.2357,0,0,0,0,0,-0.2407,-0.241,-0.2423,-0.2433,-0.248,-0.2508,-0.2514,-0.2553,-0.2571,-0.2575,-0.256,-0.2552,-0.2469,-0.2484,-0.247,-0.2453,-0.235,-0.2347,-0.2345,-0.236,-0.2358,-0.2357,0,0,0,0,0,0,-0.2379,-0.2417,-0.2433,-0.2451,-0.2479,-0.2519,-0.2525,-0.2552,-0.2546,-0.2546,-0.2532,-0.2523,-0.2484,-0.2458,-0.2475,-0.2406,-0.241,-0.2405,-0.2426,-0.2423,-0.2422,-0.2423,-0.2475,0,0,0,0,0,-0.2371,-0.2377,-0.242,-0.2433,-0.2442,-0.2481,-0.2496,-0.2524,-0.2531,-0.2533,-0.2522,-0.2495,-0.2459,-0.2436,-0.2405,-0.2353,-0.2313,-0.2335,-0.2333,-0.2332,-0.2323,-0.2244,-0.2234,-0.2337,-0.2337,-0.2337,0,0,-0.2364,-0.2386,-0.2391,-0.2426,-0.2445,-0.2459,-0.2493,-0.2516,-0.2525,-0.2516,-0.2507,-0.2487,-0.2446,-0.2405,-0.2384,-0.2383,-0.2283,-0.2329,-0.2329,-0.232,-0.224,-0.223,-0.2221,-0.2335,-0.2336,-0.2336,0,0,-0.2346,-0.2369,-0.2364,-0.2386,-0.242,-0.2443,-0.2451,-0.2488,-0.25,-0.2488,-0.2485,-0.2452,-0.2408,-0.2378,-0.2354,-0.2314,-0.2282,-0.2312,-0.2297,-0.2221,-0.2211,-0.2203,-0.2146,-0.2132,-0.2306,-0.2306,-0.2306,0,-0.2338,-0.2344,-0.2367,-0.2374,-0.2393,-0.2435,-0.2441,-0.2453,-0.2475,-0.2463,-0.2484,-0.2414,-0.2391,-0.2323,-0.2328,-0.2309,-0.2271,-0.2312,-0.2219,-0.2209,-0.22,-0.2144,-0.2128,-0.2307,-0.2307,-0.2307,-0.2307,0,-0.2313,-0.2328,-0.2328,-0.2348,-0.2365,-0.2381,-0.2408,-0.2415,-0.2435,-0.2441,-0.2397,-0.2368,-0.2332,-0.2318,-0.2315,-0.224,-0.2236,-0.2231,-0.2226,-0.2191,-0.2134,-0.2117,-0.2307,-0.2307,-0.2307,-0.2307,0,0,-0.2269,-0.2305,-0.2303,-0.232,-0.2358,-0.2373,-0.2372,-0.2377,-0.237,-0.237,-0.2338,-0.2297,-0.2298,-0.227,-0.2256,-0.2193,-0.2112,-0.2195,-0.2191,-0.2144,-0.1954,-0.1983,-0.1967,-0.2094,-0.2091,-0.2089,-0.1943,0,-0.2245,-0.2259,-0.2276,-0.2293,-0.2309,-0.234,-0.2337,-0.2343,-0.2346,-0.2322,-0.228,-0.2255,-0.2274,-0.2266,-0.2204,-0.2133,-0.2069,-0.2153,-0.199,-0.1985,-0.2019,-0.1949,-0.1722,-0.1575,-0.1927,-0.1924,-0.1922,0,-0.2203,-0.2229,-0.2242,-0.2281,-0.2286,-0.2297,-0.2303,-0.231,-0.2279,-0.2276,-0.224,-0.2227,-0.2153,-0.2177,-0.2027,-0.2083,-0.2025,-0.1966,-0.1959,-0.1967,-0.1982,-0.1664,-0.1532,-0.1895,-0.1897,-0.1899,-0.1901,0,-0.2162,-0.2198,-0.2212,-0.223,-0.2274,-0.2276,-0.2297,-0.2289,-0.2277,-0.2257,-0.2227,-0.2162,-0.2112,-0.2027,-0.1958,-0.1984,-0.1779,-0.1794,-0.1754,-0.1756,-0.1519,-0.1507,-0.167,-0.167,-0.167,-0.1671,-0.1671,0,-0.2133,-0.214,-0.2201,-0.2214,-0.222,-0.2263,-0.2252,-0.2264,-0.2244,-0.2197,-0.221,-0.2136,-0.2071,-0.1969,-0.1914,-0.1787,-0.1745,-0.1729,-0.1708,-0.1523,-0.1512,-0.176,-0.1773,-0.1665,-0.1666,-0.1667,-0.1668,0,-0.207,-0.2116,-0.2135,-0.2188,-0.2203,-0.2209,-0.2233,-0.2214,-0.2223,-0.2155,-0.2149,-0.2081,-0.1974,-0.191,-0.1755,-0.1719,-0.161,-0.1579,-0.1393,-0.1354,-0.1646,-0.1661,-0.1497,-0.1496,-0.1496,-0.1496,-0.1495,0,-0.2033,-0.204,-0.21,-0.2109,-0.2131,-0.2155,-0.2154,-0.2194,-0.2164,-0.21,-0.2035,-0.1954,-0.186,-0.168,-0.1614,-0.1519,-0.1562,-0.1254,-0.1273,-0.1626,-0.1621,-0.1637,-0.1652,-0.0946,-0.0941,-0.0937,-0.0934,0,-0.1948,-0.1971,-0.199,-0.2025,-0.204,-0.2053,-0.2059,-0.2036,-0.2047,-0.1999,-0.1896,-0.1828,-0.1681,-0.1486,-0.141,-0.1304,-0.1266,-0.1179,-0.1503,-0.1081,-0.111,-0.1107,-0.1137,-0.0899,-0.0903,-0.0905,-0.0907,-0.0909,-0.186,-0.1856,-0.1892,-0.1905,-0.1937,-0.1941,-0.1909,-0.1934,-0.19,-0.1871,-0.1823,-0.1705,-0.1516,-0.1371,-0.1199,-0.1036,-0.1148,-0.0987,-0.0995,-0.1008,-0.1027,-0.1059,-0.0841,-0.0844,-0.0847,-0.0849,-0.0851,0,-0.174,-0.1752,-0.1765,-0.1801,-0.1799,-0.1845,-0.1819,-0.1779,-0.174,-0.1845,-0.1832,-0.1464,-0.1296,-0.111,-0.0827,-0.0733,-0.0681,-0.0624,-0.0527,-0.0557,-0.0586,-0.0583,-0.0279,-0.0279,-0.0279,-0.0279,0,0,-0.1673,-0.1647,-0.1662,-0.1644,-0.1665,-0.1607,-0.1565,-0.155,-0.1602,-0.1591,-0.1563,-0.1743,-0.1358,-0.1066,-0.0792,-0.054,-0.0621,-0.048,-0.0922,-0.0865,-0.0898,-0.0736,-0.076,0,0,0,0,0]},{"header":{"parameterUnit":"m.s-1","parameterCategory":2,"la1":30.2991,"la2":30.254,"lo1":-89.0895,"lo2":-89.0444,"dy":0.0017,"dx":0.0017,"nx":28,"ny":28,"refTime":"2025-07-12T21:00:00:Z","depth":"2","parameterNumber":3,"parameterNumberName":"V-component_of_CURRENTS"},"data":[0,0,0,0,0,0,0,0,0,0,0,0,0,0,0,0,0,0,0,0,0,0,0,0,0,0,0,0,0,0,0,0,0,0,0,0,0,0,0,0,0,0,0,0,0,0,0,0,0,0,0,0,0,0,0,0,0,0,0.0109,0.011,0,0.017,0.0171,0.0172,0.0167,0.0166,0.0164,0.0163,0.0267,0.0271,0.0275,0,0,0,0,0,0,0,0,0,0,0,0,0,0.0089,0.0089,0.0109,0.011,0.011,0.017,0.0171,0.0172,0.0167,0.0166,0.0164,0.0163,0.0266,0.0271,0.0275,0,0,0,0,0,0,0,0,0,0,0,0,0,0.012,0.0089,0.0109,0.0113,0.0114,0.017,0.0171,0.0172,0.0167,0.0165,0.0164,0.0162,0.0265,0.027,0.0276,0.0347,0,0,0.0294,0.0296,0,0,0,0,0,0,0,0,0.0119,0.0122,0.0112,0.0113,0.0114,0.0157,0.0202,0.0232,0.0168,0.015,0.0163,0.0161,0.0234,0.0242,0.0261,0.0352,0.0356,0.0294,0.0298,0.03,0.0302,0,0,0,0,0,0,0,0.0116,0.0119,0.0136,0.0113,0.0114,0.0146,0.0148,0.0208,0.0204,0.0151,0.015,0.0153,0.0235,0.0255,0.0263,0.0358,0.0294,0.0299,0.0303,0.0305,0.0433,0.0433,0,0,0,0,0,0,0.01,0.0117,0.0134,0.0138,0.0109,0.0147,0.0149,0.0147,0.0202,0.0208,0.0155,0.0153,0.0246,0.0256,0.0267,0.0265,0.03,0.0306,0.0309,0.0433,0.0433,0.0432,0,0,0,0,0,0,0.01,0.0101,0.0132,0.0127,0.0133,0.0148,0.0146,0.0149,0.0133,0.0204,0.0211,0.0131,0.0245,0.0259,0.0292,0.0272,0.0308,0.0313,0.0433,0.0433,0.0433,0.0318,0,0,0,0,0,0,0.0099,0.01,0.0085,0.0126,0.0132,0.014,0.0148,0.0151,0.0138,0.0135,0.0187,0.0196,0.0245,0.0283,0.0297,0.0281,0.0318,0.0433,0.0433,0.0433,0.0322,0.0314,0.0307,0,0,0,0,0,0.0098,0.0082,0.0084,0.0085,0.0113,0.0139,0.0145,0.0153,0.0138,0.0131,0.0163,0.0193,0.0292,0.0287,0.0305,0.0289,0.0433,0.0433,0.0433,0.0325,0.0316,0.0307,0,0,0,0,0,0,0.006,0.0081,0.0083,0.0072,0.0092,0.0136,0.0127,0.0133,0.0153,0.0142,0.0199,0.0212,0.0232,0.0284,0.0277,0.0327,0.0366,0.0369,0.0278,0.027,0.0263,0.0243,0.0323,0,0,0,0,0,0.0047,0.004,0.0069,0.0059,0.0061,0.0088,0.0093,0.0101,0.0128,0.0132,0.0169,0.0213,0.0255,0.0275,0.0325,0.036,0.0433,0.0361,0.0354,0.0347,0.0344,0.047,0.0474,0.0432,0.0432,0.0432,0,0,0.003,0.004,0.0035,0.005,0.0063,0.0075,0.0085,0.0084,0.0091,0.0146,0.0155,0.0188,0.0258,0.0287,0.0301,0.0321,0.0389,0.0347,0.034,0.0341,0.047,0.0474,0.0478,0.0432,0.0432,0.0432,0,0,0.0003,-0.0001,-0.0015,0.0002,0.0014,0.0041,0.0028,0.0056,0.0057,0.0081,0.0113,0.0134,0.0202,0.0245,0.0277,0.0267,0.0345,0.0271,0.022,0.0341,0.0346,0.0351,0.0411,0.0423,0.0269,0.0269,0.0269,0,-0.0022,-0.0033,-0.0014,-0.0015,-0.0009,0.0017,0.0011,0.0033,0.0067,0.0069,0.0067,0.0147,0.0189,0.0235,0.0211,0.0249,0.0312,0.0241,0.0332,0.0338,0.0346,0.0407,0.0421,0.0263,0.0264,0.0264,0.0265,0,-0.0047,-0.006,-0.0068,-0.0057,-0.0042,-0.0047,-0.001,-0.0006,-0.0006,0.0016,0.0036,0.0096,0.0135,0.0149,0.0169,0.0224,0.0246,0.0305,0.0349,0.0343,0.0408,0.0424,0.0255,0.0257,0.0259,0.026,0,0,-0.0095,-0.0091,-0.0095,-0.0103,-0.0071,-0.0062,-0.0048,-0.003,-0.0031,-0.0005,0.0009,0.0044,0.0046,0.0082,0.0116,0.0204,0.0277,0.025,0.0259,0.0299,0.0504,0.042,0.0431,0.0355,0.0358,0.0361,0.0514,0,-0.0129,-0.0155,-0.0129,-0.0141,-0.0154,-0.0113,-0.0097,-0.0073,-0.0053,-0.0025,0.002,0.004,0.0033,0.0032,0.0114,0.0252,0.0322,0.0227,0.0514,0.0521,0.0441,0.0449,0.0554,0.0693,0.0532,0.0534,0.0537,0,-0.0164,-0.0179,-0.0213,-0.02,-0.0201,-0.0198,-0.0178,-0.0159,-0.0105,-0.0093,-0.0068,-0.0026,0.0045,0.0068,0.0277,0.0215,0.0326,0.044,0.0451,0.0428,0.047,0.0684,0.073,0.0566,0.0564,0.0561,0.0559,0,-0.0223,-0.0232,-0.027,-0.0266,-0.0244,-0.0258,-0.0248,-0.0206,-0.0187,-0.015,-0.0119,-0.0037,0.0028,0.0182,0.0314,0.0323,0.0574,0.064,0.0669,0.0664,0.0837,0.084,0.0807,0.0807,0.0806,0.0806,0.0805,0,-0.0268,-0.0292,-0.0314,-0.0333,-0.037,-0.0334,-0.0351,-0.033,-0.0271,-0.0226,-0.0185,-0.0115,0.007,0.0208,0.0335,0.0511,0.0586,0.0654,0.0708,0.0791,0.0788,0.0755,0.0747,0.0812,0.081,0.0809,0.0808,0,-0.0318,-0.0332,-0.0376,-0.0394,-0.0405,-0.0441,-0.0421,-0.0403,-0.0365,-0.0289,-0.028,-0.0134,0.0011,0.0156,0.043,0.0541,0.0718,0.0758,0.0783,0.0833,0.0731,0.0715,0.0862,0.0861,0.0859,0.0858,0.0858,0,-0.0339,-0.0377,-0.0439,-0.0473,-0.0493,-0.0529,-0.0524,-0.0478,-0.042,-0.0293,-0.0223,-0.0109,-0.0033,0.0254,0.0497,0.0687,0.066,0.0883,0.0916,0.0704,0.0742,0.0728,0.0715,0.1112,0.1113,0.1114,0.1115,0,-0.0373,-0.0414,-0.0455,-0.0543,-0.0573,-0.0566,-0.0545,-0.0499,-0.0394,-0.0343,-0.0224,-0.0181,0.008,0.0357,0.0562,0.069,0.0851,0.0905,0.0771,0.1023,0.0937,0.0973,0.0954,0.1125,0.1124,0.1123,0.1122,0.1122,-0.0391,-0.0446,-0.0519,-0.0592,-0.0623,-0.058,-0.056,-0.0489,-0.0419,-0.0258,-0.0189,0.0037,0.0275,0.0689,0.0714,0.0835,0.0888,0.1015,0.1016,0.1015,0.0958,0.0868,0.1031,0.103,0.1029,0.1028,0.1027,0,-0.0377,-0.0463,-0.0548,-0.0601,-0.0606,-0.0635,-0.0542,-0.0474,-0.0399,-0.0175,-0.0096,0.0325,0.0606,0.0784,0.1038,0.1071,0.1074,0.1011,0.1094,0.1091,0.1087,0.1032,0.1126,0.1124,0.1123,0.1121,0,0,-0.0369,-0.0449,-0.0508,-0.0552,-0.06,-0.0569,-0.0522,-0.0452,-0.0267,-0.0076,0.0239,0.0577,0.086,0.1053,0.1053,0.1103,0.1026,0.1051,0.1007,0.1099,0.1089,0.1169,0.109,0,0,0,0,0]}],[{"header":{"parameterUnit":"m.s-1","parameterCategory":2,"la1":30.2991,"la2":30.254,"lo1":-89.0895,"lo2":-89.0444,"dy":0.0017,"dx":0.0017,"nx":28,"ny":28,"refTime":"2025-07-12T21:00:00:Z","depth":"4","parameterNumber":2,"parameterNumberName":"U-component_of_CURRENTS"},"data":[0,0,0,0,0,0,0,0,0,0,0,0,0,0,0,0,0,0,0,0,0,0,0,0,0,0,0,0,0,0,0,0,0,0,0,0,0,0,0,0,0,0,0,0,0,0,0,0,0,0,0,0,0,0,0,0,0,0,-0.0724,-0.0724,0,-0.0778,-0.0779,-0.078,-0.0843,-0.0843,-0.0844,-0.0845,-0.0988,-0.0991,-0.0994,0,0,0,0,0,0,0,0,0,0,0,0,0,-0.0654,-0.0655,-0.0724,-0.0724,-0.0725,-0.0778,-0.0779,-0.078,-0.0842,-0.0843,-0.0844,-0.0845,-0.0987,-0.0991,-0.0994,0,0,0,0,0,0,0,0,0,0,0,0,0,-0.0696,-0.0655,-0.0724,-0.076,-0.0764,-0.0778,-0.0779,-0.078,-0.0842,-0.0843,-0.0844,-0.0845,-0.0986,-0.099,-0.0995,-0.1003,0,0,-0.1009,-0.1011,0,0,0,0,0,0,0,0,-0.0694,-0.0699,-0.0755,-0.0758,-0.0762,-0.0802,-0.0806,-0.0858,-0.0842,-0.0815,-0.0845,-0.0846,-0.0931,-0.0941,-0.0951,-0.101,-0.1016,-0.101,-0.1013,-0.1015,-0.1016,0,0,0,0,0,0,0,-0.0691,-0.0697,-0.0748,-0.0755,-0.0759,-0.0766,-0.0774,-0.0816,-0.0871,-0.0818,-0.0822,-0.0823,-0.0935,-0.0946,-0.0955,-0.1018,-0.101,-0.1014,-0.1017,-0.1019,-0.1197,-0.1198,0,0,0,0,0,0,-0.0679,-0.0694,-0.0746,-0.0749,-0.0727,-0.0767,-0.0776,-0.079,-0.0868,-0.088,-0.0822,-0.0826,-0.0938,-0.095,-0.0961,-0.1087,-0.1015,-0.1019,-0.1022,-0.1195,-0.1197,-0.1199,0,0,0,0,0,0,-0.0677,-0.0683,-0.0744,-0.072,-0.0728,-0.0767,-0.0783,-0.0791,-0.0836,-0.087,-0.0884,-0.0863,-0.0939,-0.0954,-0.105,-0.1088,-0.1021,-0.1025,-0.1192,-0.1195,-0.1198,-0.1267,0,0,0,0,0,0,-0.0675,-0.0683,-0.0701,-0.072,-0.0729,-0.075,-0.0782,-0.0791,-0.0832,-0.0838,-0.0909,-0.0921,-0.0941,-0.1043,-0.1055,-0.1094,-0.1029,-0.119,-0.1194,-0.1197,-0.1263,-0.1272,-0.128,0,0,0,0,0,-0.0673,-0.069,-0.0702,-0.0709,-0.0749,-0.0749,-0.0755,-0.0787,-0.0833,-0.0838,-0.0925,-0.0921,-0.1073,-0.105,-0.1063,-0.1104,-0.1188,-0.1193,-0.1197,-0.1259,-0.127,-0.128,0,0,0,0,0,0,-0.0665,-0.0699,-0.0712,-0.0739,-0.0741,-0.0759,-0.0781,-0.0806,-0.0876,-0.0897,-0.0959,-0.0977,-0.1077,-0.1079,-0.1052,-0.1163,-0.1124,-0.1131,-0.1166,-0.1178,-0.1186,-0.1134,-0.1033,0,0,0,0,0,-0.067,-0.0695,-0.071,-0.0726,-0.0741,-0.077,-0.0785,-0.0789,-0.0843,-0.0875,-0.0928,-0.1,-0.1096,-0.113,-0.1185,-0.1246,-0.1212,-0.1276,-0.1285,-0.1292,-0.1258,-0.1287,-0.1295,-0.1213,-0.1213,-0.1213,0,0,-0.0667,-0.0689,-0.0702,-0.0726,-0.0748,-0.0766,-0.0784,-0.0793,-0.0822,-0.0881,-0.0963,-0.1039,-0.1125,-0.1208,-0.1248,-0.1218,-0.1293,-0.1298,-0.1304,-0.1265,-0.1293,-0.13,-0.1307,-0.1216,-0.1215,-0.1215,0,0,-0.0662,-0.0702,-0.0721,-0.0735,-0.0749,-0.0764,-0.0775,-0.0798,-0.0833,-0.0905,-0.0983,-0.106,-0.1183,-0.1231,-0.1289,-0.1368,-0.1352,-0.1415,-0.1407,-0.1438,-0.1444,-0.1449,-0.1392,-0.1391,-0.1405,-0.1405,-0.1405,0,-0.0664,-0.0684,-0.0718,-0.0741,-0.0752,-0.0776,-0.0783,-0.0828,-0.0872,-0.0908,-0.0933,-0.1119,-0.1179,-0.1306,-0.1352,-0.1382,-0.139,-0.1368,-0.1448,-0.1452,-0.1456,-0.1396,-0.1394,-0.1409,-0.1408,-0.1408,-0.1407,0,-0.0652,-0.0691,-0.0707,-0.0753,-0.0766,-0.0766,-0.0814,-0.0845,-0.09,-0.0936,-0.105,-0.1132,-0.1225,-0.1284,-0.1363,-0.1443,-0.1435,-0.147,-0.1416,-0.1468,-0.1401,-0.1398,-0.1414,-0.1413,-0.1412,-0.1411,0,0,-0.0628,-0.0686,-0.0702,-0.0727,-0.0763,-0.0774,-0.0834,-0.088,-0.0937,-0.0991,-0.1052,-0.1218,-0.1241,-0.1303,-0.1387,-0.1424,-0.1465,-0.1478,-0.1478,-0.1407,-0.15,-0.1347,-0.1327,-0.156,-0.156,-0.1561,-0.1432,0,-0.0615,-0.0649,-0.0676,-0.0721,-0.0748,-0.0788,-0.0857,-0.0904,-0.0953,-0.1016,-0.1096,-0.1202,-0.1263,-0.1329,-0.1374,-0.1474,-0.1467,-0.1492,-0.1468,-0.1463,-0.1313,-0.1323,-0.1563,-0.143,-0.1429,-0.1428,-0.1428,0,-0.0607,-0.0632,-0.0656,-0.073,-0.075,-0.0787,-0.0863,-0.0908,-0.1002,-0.1057,-0.112,-0.1182,-0.1268,-0.1304,-0.1392,-0.1433,-0.1452,-0.1489,-0.1486,-0.1306,-0.1305,-0.1373,-0.1422,-0.1422,-0.1423,-0.1423,-0.1423,0,-0.0573,-0.0636,-0.065,-0.067,-0.075,-0.0789,-0.0838,-0.0925,-0.0969,-0.1065,-0.1079,-0.1191,-0.1229,-0.1303,-0.1357,-0.1413,-0.1409,-0.1474,-0.1312,-0.1298,-0.1444,-0.144,-0.1472,-0.1473,-0.1473,-0.1473,-0.1474,0,-0.0552,-0.0583,-0.0654,-0.0668,-0.0714,-0.0785,-0.0854,-0.0909,-0.099,-0.1015,-0.1091,-0.1093,-0.125,-0.1256,-0.1322,-0.1274,-0.1359,-0.1271,-0.126,-0.1473,-0.1474,-0.1439,-0.1437,-0.1468,-0.1469,-0.147,-0.1471,0,-0.0527,-0.0558,-0.0589,-0.0671,-0.0698,-0.0736,-0.0844,-0.0879,-0.0969,-0.0975,-0.1002,-0.1045,-0.1042,-0.1099,-0.1183,-0.1181,-0.1188,-0.1136,-0.1275,-0.128,-0.1056,-0.1059,-0.094,-0.0933,-0.0928,-0.0923,-0.0919,0,-0.0513,-0.0532,-0.0581,-0.0575,-0.0612,-0.0697,-0.0735,-0.0859,-0.0877,-0.0918,-0.0881,-0.0876,-0.0892,-0.0844,-0.0942,-0.0953,-0.0969,-0.0951,-0.1073,-0.1002,-0.1004,-0.1016,-0.1026,-0.0911,-0.0909,-0.0908,-0.0907,0,-0.0488,-0.051,-0.0523,-0.0514,-0.0533,-0.0586,-0.0649,-0.068,-0.0782,-0.0822,-0.0777,-0.0764,-0.0698,-0.0747,-0.0728,-0.0765,-0.0979,-0.0895,-0.0909,-0.1024,-0.0966,-0.0976,-0.0993,-0.0888,-0.0891,-0.0892,-0.0893,0,-0.0471,-0.046,-0.0461,-0.0463,-0.0449,-0.0469,-0.0546,-0.0582,-0.0637,-0.0688,-0.0657,-0.0642,-0.0677,-0.0636,-0.0637,-0.0633,-0.0656,-0.0709,-0.0734,-0.0755,-0.0759,-0.0664,-0.0448,0,0,0,0,0,-0.0452,-0.0429,-0.0407,-0.0391,-0.0371,-0.039,-0.0459,-0.0546,-0.0629,-0.0564,-0.0639,-0.0577,-0.0545,-0.0542,-0.0502,-0.0535,-0.0655,-0.0487,-0.073,-0.0784,-0.0805,-0.0832,0,0,0,0,0,0,-0.0421,-0.0395,-0.0391,-0.0333,-0.0315,-0.0319,-0.0375,-0.0444,-0.0456,-0.0518,-0.0501,-0.0525,-0.0497,-0.054,-0.0477,-0.0476,-0.0619,-0.0487,-0.0485,-0.0771,-0.0791,-0.0809,-0.0843,0,0,0,0,0]},{"header":{"parameterUnit":"m.s-1","parameterCategory":2,"la1":30.2991,"la2":30.254,"lo1":-89.0895,"lo2":-89.0444,"dy":0.0017,"dx":0.0017,"nx":28,"ny":28,"refTime":"2025-07-12T21:00:00:Z","depth":"4","parameterNumber":3,"parameterNumberName":"V-component_of_CURRENTS"},"data":[0,0,0,0,0,0,0,0,0,0,0,0,0,0,0,0,0,0,0,0,0,0,0,0,0,0,0,0,0,0,0,0,0,0,0,0,0,0,0,0,0,0,0,0,0,0,0,0,0,0,0,0,0,0,0,0,0,0,-0.0496,-0.0496,0,-0.0503,-0.0503,-0.0503,-0.048,-0.0479,-0.0479,-0.0478,-0.0471,-0.0471,-0.0471,0,0,0,0,0,0,0,0,0,0,0,0,0,-0.0441,-0.0442,-0.0496,-0.0496,-0.0496,-0.0503,-0.0503,-0.0503,-0.048,-0.0479,-0.0478,-0.0478,-0.0471,-0.0471,-0.0471,0,0,0,0,0,0,0,0,0,0,0,0,0,-0.0456,-0.0442,-0.0496,-0.0488,-0.0487,-0.0503,-0.0503,-0.0503,-0.048,-0.0479,-0.0478,-0.0478,-0.0471,-0.0471,-0.0471,-0.0487,0,0,-0.0472,-0.0472,0,0,0,0,0,0,0,0,-0.0455,-0.0457,-0.0488,-0.0488,-0.0488,-0.0492,-0.0481,-0.0498,-0.048,-0.048,-0.0478,-0.0477,-0.0479,-0.0478,-0.0478,-0.0487,-0.0487,-0.0472,-0.0473,-0.0473,-0.0473,0,0,0,0,0,0,0,-0.0454,-0.0457,-0.0496,-0.0489,-0.0489,-0.0477,-0.0478,-0.0484,-0.0481,-0.048,-0.0479,-0.0484,-0.0478,-0.0477,-0.0477,-0.0486,-0.0472,-0.0473,-0.0473,-0.0473,-0.0516,-0.0517,0,0,0,0,0,0,-0.046,-0.0456,-0.0496,-0.0496,-0.0472,-0.0478,-0.048,-0.0489,-0.0481,-0.048,-0.0485,-0.0483,-0.0477,-0.0477,-0.0477,-0.0506,-0.0473,-0.0473,-0.0473,-0.0515,-0.0516,-0.0517,0,0,0,0,0,0,-0.0459,-0.0464,-0.0495,-0.0478,-0.0481,-0.0481,-0.0491,-0.049,-0.0503,-0.0485,-0.0483,-0.0501,-0.0477,-0.0477,-0.0491,-0.0505,-0.0473,-0.0474,-0.0514,-0.0516,-0.0517,-0.0558,0,0,0,0,0,0,-0.0458,-0.0464,-0.0474,-0.0479,-0.0483,-0.0517,-0.0492,-0.049,-0.0508,-0.0506,-0.0499,-0.0496,-0.0476,-0.049,-0.0491,-0.0505,-0.0474,-0.0513,-0.0515,-0.0516,-0.0555,-0.056,-0.0565,0,0,0,0,0,-0.0456,-0.0469,-0.0474,-0.0479,-0.0497,-0.0519,-0.052,-0.0514,-0.051,-0.0522,-0.0514,-0.0497,-0.0502,-0.0492,-0.0492,-0.0507,-0.0512,-0.0514,-0.0516,-0.0553,-0.0559,-0.0565,0,0,0,0,0,0,-0.0449,-0.0469,-0.0474,-0.0493,-0.0513,-0.0516,-0.0527,-0.053,-0.0534,-0.0532,-0.0513,-0.0511,-0.0527,-0.0517,-0.0507,-0.0525,-0.0504,-0.0506,-0.0531,-0.0537,-0.0542,-0.0524,-0.0474,0,0,0,0,0,-0.0456,-0.0474,-0.0492,-0.0511,-0.0523,-0.0532,-0.0541,-0.0543,-0.0547,-0.0549,-0.0544,-0.0538,-0.0536,-0.0537,-0.0534,-0.0551,-0.0502,-0.0559,-0.0564,-0.0568,-0.0555,-0.0504,-0.0502,-0.0524,-0.0524,-0.0524,0,0,-0.0462,-0.0474,-0.0486,-0.0512,-0.0525,-0.0548,-0.0536,-0.056,-0.0575,-0.0549,-0.0568,-0.056,-0.0545,-0.0555,-0.0562,-0.0549,-0.0536,-0.0571,-0.0575,-0.0558,-0.0506,-0.0503,-0.0501,-0.0526,-0.0525,-0.0525,0,0,-0.0477,-0.0496,-0.0513,-0.0533,-0.056,-0.0569,-0.0584,-0.0601,-0.0605,-0.0628,-0.0606,-0.0605,-0.0616,-0.0595,-0.0588,-0.0622,-0.0566,-0.0629,-0.0636,-0.0588,-0.0584,-0.0581,-0.0507,-0.0497,-0.0629,-0.0629,-0.0629,0,-0.0478,-0.0505,-0.0523,-0.0545,-0.0563,-0.0584,-0.0608,-0.0622,-0.0639,-0.0644,-0.0642,-0.0637,-0.0629,-0.0621,-0.0625,-0.0631,-0.0582,-0.0615,-0.0591,-0.0587,-0.0583,-0.0508,-0.0496,-0.0631,-0.0631,-0.063,-0.063,0,-0.0505,-0.0529,-0.0545,-0.058,-0.0604,-0.0631,-0.0656,-0.0677,-0.0691,-0.0696,-0.0704,-0.0686,-0.0678,-0.0678,-0.0659,-0.0633,-0.0599,-0.0604,-0.0571,-0.0583,-0.0503,-0.049,-0.0634,-0.0633,-0.0633,-0.0632,0,0,-0.0494,-0.055,-0.0557,-0.0579,-0.0624,-0.0647,-0.0681,-0.071,-0.0727,-0.0738,-0.0748,-0.0734,-0.0721,-0.071,-0.0688,-0.0639,-0.0567,-0.0606,-0.0602,-0.0522,-0.043,-0.0354,-0.0331,-0.0564,-0.0562,-0.0561,-0.0382,0,-0.0507,-0.055,-0.0576,-0.0626,-0.0652,-0.0683,-0.0718,-0.0746,-0.076,-0.0778,-0.0759,-0.0763,-0.0737,-0.0729,-0.0681,-0.0609,-0.0536,-0.0613,-0.0439,-0.0433,-0.0356,-0.0315,-0.0555,-0.0372,-0.0369,-0.0366,-0.0365,0,-0.0519,-0.0546,-0.0595,-0.0651,-0.0667,-0.0704,-0.0752,-0.0784,-0.0809,-0.0818,-0.0809,-0.0797,-0.0748,-0.0724,-0.0578,-0.0627,-0.0521,-0.0449,-0.0441,-0.0342,-0.0332,-0.0361,-0.034,-0.0342,-0.0344,-0.0346,-0.0347,0,-0.0502,-0.0558,-0.0599,-0.062,-0.0689,-0.0719,-0.0758,-0.0796,-0.0813,-0.0837,-0.0827,-0.0799,-0.076,-0.0656,-0.0517,-0.0541,-0.0333,-0.0357,-0.0174,-0.0167,-0.0273,-0.0278,-0.0216,-0.0216,-0.0216,-0.0217,-0.0217,0,-0.0501,-0.0534,-0.06,-0.0624,-0.068,-0.0727,-0.0788,-0.081,-0.0837,-0.0822,-0.0841,-0.0786,-0.0733,-0.0618,-0.0507,-0.0289,-0.0321,-0.0144,-0.011,-0.0295,-0.0305,-0.0262,-0.027,-0.021,-0.0212,-0.0213,-0.0214,0,-0.0487,-0.0528,-0.0577,-0.0649,-0.0679,-0.0722,-0.0804,-0.0821,-0.0846,-0.0815,-0.0812,-0.0762,-0.0608,-0.0517,-0.0335,-0.0243,-0.0075,0.0022,-0.0154,-0.0138,0.0059,0.0046,0.0234,0.0239,0.0242,0.0246,0.0248,0,-0.0489,-0.0514,-0.0592,-0.0622,-0.0662,-0.0739,-0.0776,-0.0827,-0.0811,-0.0757,-0.07,-0.0588,-0.0527,-0.0208,-0.0152,0.0057,0.0094,0.0176,0.0099,0.0094,0.0108,0.009,0.0073,0.0254,0.0255,0.0256,0.0257,0,-0.0487,-0.0518,-0.0557,-0.0606,-0.065,-0.0715,-0.0746,-0.0727,-0.0726,-0.073,-0.0534,-0.0412,-0.0236,-0.0112,0.0045,0.0188,0.0096,0.0215,0.0208,0.0135,0.012,0.0126,0.0105,0.027,0.0268,0.0267,0.0266,0,-0.0492,-0.0511,-0.0549,-0.0596,-0.0641,-0.0657,-0.0696,-0.0627,-0.0614,-0.0502,-0.0426,-0.0284,-0.0224,-0.0034,0.0112,0.0241,0.0269,0.0305,0.0293,0.028,0.0214,0.0195,0.043,0,0,0,0,0,-0.0494,-0.0509,-0.0536,-0.0587,-0.0617,-0.0649,-0.0648,-0.0666,-0.0624,-0.0437,-0.0423,-0.0238,-0.0015,0.0039,0.0197,0.0129,0.0236,0.0314,0.0258,0.034,0.0326,0.0243,0,0,0,0,0,0,-0.0502,-0.052,-0.0525,-0.0555,-0.0588,-0.0624,-0.0624,-0.0598,-0.049,-0.0417,-0.0297,-0.0202,-0.0011,-0.0103,0.0195,0.0225,0.0217,0.0406,0.0411,0.0349,0.0335,0.0323,0.0234,0,0,0,0,0]}]]